TimeCST,TemperatureF,Dew PointF,Humidity,Sea Level PressureIn,VisibilityMPH,Wind Direction,Wind SpeedMPH,Gust SpeedMPH,PrecipitationIn,Events,Conditions,WindDirDegrees,DateUTC
12:15 AM,30.6,27.3,88,30.13,7.0,North,13.8,21.9,N/A,,Overcast,360,2013-03-02 06:15:00
12:35 AM,30.7,26.4,84,30.14,10.0,North,12.7,-,N/A,,Overcast,360,2013-03-02 06:35:00
12:55 AM,30.7,26.8,85,30.14,10.0,North,13.8,-,N/A,,Overcast,350,2013-03-02 06:55:00
1:15 AM,30.6,26.8,86,30.14,10.0,North,12.7,16.1,N/A,,Overcast,360,2013-03-02 07:15:00
1:35 AM,30.2,26.4,86,30.14,10.0,North,12.7,-,N/A,,Overcast,350,2013-03-02 07:35:00
1:55 AM,30.2,26.2,85,30.14,10.0,North,13.8,-,N/A,,Overcast,350,2013-03-02 07:55:00
2:15 AM,29.8,25.5,84,30.13,10.0,North,12.7,-,N/A,,Overcast,350,2013-03-02 08:15:00
2:35 AM,29.8,25.3,83,30.13,10.0,North,16.1,-,N/A,,Overcast,350,2013-03-02 08:35:00
2:55 AM,29.5,25.2,84,30.13,10.0,North,12.7,-,N/A,,Overcast,350,2013-03-02 08:55:00
3:15 AM,29.3,24.8,83,30.13,10.0,North,12.7,17.3,N/A,,Overcast,350,2013-03-02 09:15:00
3:35 AM,29.3,25.2,85,30.13,10.0,North,9.2,17.3,N/A,,Overcast,350,2013-03-02 09:35:00
3:55 AM,29.1,24.6,83,30.13,10.0,North,12.7,-,N/A,,Overcast,350,2013-03-02 09:55:00
4:15 AM,28.9,25.0,85,30.13,10.0,North,10.4,-,N/A,,Overcast,350,2013-03-02 10:15:00
4:35 AM,28.8,24.1,83,30.14,10.0,North,12.7,-,N/A,,Overcast,350,2013-03-02 10:35:00
4:55 AM,28.6,23.9,83,30.14,10.0,North,11.5,-,N/A,,Overcast,350,2013-03-02 10:55:00
5:15 AM,28.8,24.4,84,30.14,10.0,NNW,6.9,-,N/A,,Overcast,340,2013-03-02 11:15:00
5:35 AM,28.6,24.3,84,30.14,10.0,NNW,10.4,-,N/A,,Overcast,340,2013-03-02 11:35:00
5:55 AM,28.6,24.6,85,30.14,10.0,NNW,8.1,-,N/A,,Overcast,340,2013-03-02 11:55:00
6:15 AM,28.8,24.8,85,30.14,10.0,NNW,8.1,-,N/A,,Overcast,340,2013-03-02 12:15:00
6:35 AM,28.4,24.6,86,30.15,10.0,NNW,11.5,-,N/A,,Overcast,340,2013-03-02 12:35:00
6:55 AM,28.2,24.4,86,30.16,7.0,NNW,11.5,16.1,N/A,Snow,Light Snow,340,2013-03-02 12:55:00
7:15 AM,28.2,24.8,87,30.17,5.0,NNW,13.8,-,N/A,Snow,Light Snow,330,2013-03-02 13:15:00
7:35 AM,28.2,24.3,85,30.17,4.0,NNW,9.2,-,N/A,Snow,Light Snow,330,2013-03-02 13:35:00
7:55 AM,28.2,25.2,88,30.18,4.0,NW,9.2,-,N/A,Snow,Light Snow,320,2013-03-02 13:55:00
8:15 AM,28.2,24.8,87,30.18,7.0,NW,10.4,-,N/A,Snow,Light Snow,320,2013-03-02 14:15:00
8:35 AM,28.4,24.8,86,30.18,10.0,NW,11.5,-,N/A,Snow,Light Snow,320,2013-03-02 14:35:00
8:55 AM,28.8,25.0,86,30.18,5.0,NW,13.8,-,N/A,Snow,Light Snow,320,2013-03-02 14:55:00
9:15 AM,28.9,25.0,85,30.19,10.0,NW,10.4,-,N/A,Snow,Light Snow,320,2013-03-02 15:15:00
9:35 AM,29.1,24.8,84,30.19,7.0,NW,10.4,-,N/A,Snow,Light Snow,320,2013-03-02 15:35:00
9:55 AM,29.1,25.0,85,30.19,7.0,NW,11.5,16.1,N/A,Snow,Light Snow,310,2013-03-02 15:55:00
10:15 AM,29.1,25.2,85,30.19,5.0,NW,11.5,-,N/A,Snow,Light Snow,320,2013-03-02 16:15:00
10:35 AM,30.2,24.8,80,30.19,7.0,NW,11.5,-,N/A,Snow,Light Snow,310,2013-03-02 16:35:00
10:55 AM,29.7,25.3,84,30.19,7.0,NW,13.8,17.3,N/A,Snow,Light Snow,320,2013-03-02 16:55:00
11:15 AM,29.8,25.9,85,30.19,4.0,NW,12.7,18.4,N/A,Snow,Light Snow,320,2013-03-02 17:15:00
11:35 AM,30.2,25.3,82,30.19,7.0,NW,13.8,17.3,N/A,Snow,Light Snow,310,2013-03-02 17:35:00
11:55 AM,30.6,25.2,80,30.19,7.0,NW,13.8,-,N/A,Snow,Light Snow,310,2013-03-02 17:55:00
12:15 PM,30.7,26.4,84,30.18,5.0,NW,10.4,-,N/A,Snow,Light Snow,320,2013-03-02 18:15:00
12:35 PM,31.1,25.9,81,30.18,10.0,NW,11.5,-,N/A,Snow,Light Snow,320,2013-03-02 18:35:00
12:55 PM,30.7,25.5,81,30.17,7.0,NNW,9.2,16.1,N/A,Snow,Light Snow,330,2013-03-02 18:55:00
1:15 PM,31.1,25.7,80,30.17,10.0,NNW,12.7,-,N/A,Snow,Light Snow,340,2013-03-02 19:15:00
1:35 PM,31.8,25.9,79,30.17,10.0,NNW,10.4,-,N/A,Snow,Light Snow,330,2013-03-02 19:35:00
1:55 PM,31.1,25.0,78,30.16,7.0,NNW,9.2,-,N/A,Snow,Light Snow,330,2013-03-02 19:55:00
2:15 PM,31.8,25.2,76,30.16,10.0,NW,12.7,-,N/A,,Overcast,310,2013-03-02 20:15:00
2:35 PM,30.7,26.4,84,30.17,7.0,NW,12.7,19.6,N/A,Snow,Light Snow,320,2013-03-02 20:35:00
2:55 PM,31.8,24.6,75,30.17,10.0,NNW,12.7,18.4,N/A,,Overcast,330,2013-03-02 20:55:00
3:15 PM,30.7,25.5,81,30.17,10.0,NNW,12.7,-,N/A,,Mostly Cloudy,330,2013-03-02 21:15:00
3:35 PM,31.5,24.4,75,30.17,10.0,NNW,12.7,16.1,N/A,,Mostly Cloudy,330,2013-03-02 21:35:00
3:55 PM,31.5,23.7,73,30.17,10.0,NNW,13.8,17.3,N/A,,Overcast,330,2013-03-02 21:55:00
4:15 PM,31.1,23.5,74,30.18,10.0,NW,12.7,-,N/A,,Overcast,320,2013-03-02 22:15:00
4:35 PM,31.1,22.6,71,30.18,10.0,NNW,12.7,18.4,N/A,,Overcast,330,2013-03-02 22:35:00
4:55 PM,32.0,22.1,67,30.18,10.0,North,12.7,-,N/A,,Overcast,350,2013-03-02 22:55:00
5:15 PM,31.8,21.0,64,30.18,10.0,NNW,11.5,-,N/A,,Overcast,340,2013-03-02 23:15:00
5:35 PM,31.1,19.4,62,30.19,10.0,NNW,11.5,-,N/A,,Mostly Cloudy,330,2013-03-02 23:35:00
5:55 PM,30.9,18.5,60,30.19,10.0,North,11.5,-,N/A,,Mostly Cloudy,350,2013-03-02 23:55:00
6:15 PM,30.7,18.9,61,30.19,10.0,NNW,8.1,-,N/A,,Overcast,330,2013-03-03 00:15:00
6:35 PM,30.2,18.1,61,30.19,10.0,NW,8.1,-,N/A,,Mostly Cloudy,320,2013-03-03 00:35:00
6:55 PM,29.7,18.9,64,30.20,10.0,NW,9.2,-,N/A,,Clear,320,2013-03-03 00:55:00
7:15 PM,29.1,19.0,66,30.20,10.0,NW,8.1,-,N/A,,Clear,320,2013-03-03 01:15:00
7:35 PM,28.9,18.9,66,30.19,10.0,NNW,9.2,-,N/A,,Clear,340,2013-03-03 01:35:00
7:55 PM,28.4,19.4,69,30.19,10.0,NNW,5.8,-,N/A,,Clear,330,2013-03-03 01:55:00
8:15 PM,27.9,19.4,71,30.20,10.0,NW,6.9,-,N/A,,Scattered Clouds,320,2013-03-03 02:15:00
8:35 PM,28.4,19.4,69,30.20,10.0,NNW,6.9,-,N/A,,Scattered Clouds,330,2013-03-03 02:35:00
8:55 PM,27.7,19.2,71,30.21,10.0,NW,6.9,-,N/A,,Clear,320,2013-03-03 02:55:00
9:15 PM,27.5,19.4,72,30.20,10.0,NW,5.8,-,N/A,,Clear,310,2013-03-03 03:15:00
9:35 PM,26.6,19.4,74,30.20,10.0,NW,8.1,-,N/A,,Clear,320,2013-03-03 03:35:00
9:55 PM,26.8,18.5,71,30.20,10.0,NW,8.1,-,N/A,,Clear,320,2013-03-03 03:55:00
10:15 PM,26.6,18.7,72,30.20,10.0,NW,8.1,-,N/A,,Clear,320,2013-03-03 04:15:00
10:35 PM,26.2,18.5,73,30.20,10.0,NNW,8.1,-,N/A,,Clear,330,2013-03-03 04:35:00
10:55 PM,26.2,17.8,70,30.20,10.0,NNW,8.1,-,N/A,,Clear,330,2013-03-03 04:55:00
11:15 PM,25.9,16.7,68,30.20,10.0,NNW,8.1,-,N/A,,Clear,330,2013-03-03 05:15:00
11:35 PM,25.7,15.6,66,30.20,10.0,NNW,9.2,-,N/A,,Clear,330,2013-03-03 05:35:00
11:55 PM,25.3,16.2,68,30.19,10.0,NNW,8.1,-,N/A,,Clear,330,2013-03-03 05:55:00